This is the latest recevied weather packets stored in our database for station/object KC1OEK-13. If no packets are shown the sender has not sent any weather packets the latest 10 day(s).
| Time | Temp. | Humidity | Pressure | Rain* | Wind** | Luminosity | Snow |
|---|---|---|---|---|---|---|---|
| 1787782620 | 26.67° C | 60% | 1019.7 hPa | 0 mm | - | 93 W/m² | - |
| 1787782315 | 26.67° C | 61% | 1019.7 hPa | 0 mm | - | 101 W/m² | - |
| 1787782011 | 27.22° C | 58% | 1019.4 hPa | 0 mm | - | 125 W/m² | - |
| 1787781707 | 27.22° C | 60% | 1019.6 hPa | 0 mm | - | 136 W/m² | - |
| 1787781403 | 27.22° C | 60% | 1019.8 hPa | 0 mm | - | 150 W/m² | - |
| 1787781098 | 27.22° C | 62% | 1019.7 hPa | 0 mm | - | 159 W/m² | - |
| 1787780797 | 27.22° C | 62% | 1019.6 hPa | 0 mm | - | 172 W/m² | - |
| 1787780496 | 27.22° C | 60% | 1019.6 hPa | 0 mm | - | 175 W/m² | - |
| 1787780193 | 26.67° C | 58% | 1019.6 hPa | 0 mm | - | 196 W/m² | - |
| 1787779887 | 27.22° C | 57% | 1019.5 hPa | 0 mm | - | 211 W/m² | - |
| 1787779581 | 26.11° C | 58% | 1019.4 hPa | 0 mm | - | 228 W/m² | - |
| 1787779276 | 26.11° C | 60% | 1019.4 hPa | 0 mm | - | 245 W/m² | - |
| 1787778971 | 27.22° C | 59% | 1019.7 hPa | 0 mm | - | 259 W/m² | - |
| 1787778667 | 26.67° C | 58% | 1019.6 hPa | 0 mm | - | 272 W/m² | - |
| 1787778363 | 27.22° C | 55% | 1019.7 hPa | 0 mm | - | 283 W/m² | - |
| 1787778058 | 27.78° C | 55% | 1019.5 hPa | 0 mm | - | 298 W/m² | - |
| 1787777756 | 27.22° C | 56% | 1019.7 hPa | 0 mm | - | 316 W/m² | - |
| 1787777454 | 26.67° C | 56% | 1019.7 hPa | 0 mm | - | 335 W/m² | - |
| 1787777148 | 26.67° C | 56% | 1019.7 hPa | 0 mm | - | 350 W/m² | - |
| 1787776846 | 26.67° C | 56% | 1019.7 hPa | 0 mm | - | 369 W/m² | - |
| 1787776546 | 26.11° C | 56% | 1019.7 hPa | 0 mm | - | 380 W/m² | - |
| 1787776244 | 26.11° C | 57% | 1019.7 hPa | 0 mm | - | 394 W/m² | - |
| 1787775943 | 26.67° C | 59% | 1019.8 hPa | 0 mm | - | 413 W/m² | - |
| 1787775638 | 26.67° C | 56% | 1019.7 hPa | 0 mm | - | 430 W/m² | - |
| 1787775337 | 26.67° C | 57% | 1019.7 hPa | 0 mm | - | 437 W/m² | - |
* Rain latest hour (hover to see other rain measurements)
** Current wind speed in m/s (hover to see current wind gust speed)